Location: Walton
(43.6794°N, 81.3017°W)
Time: 09:37:53
(UTC+00:00)

Cosmos 2195 Rocket - Pass Details

Date: 09 December 2025
Orbit: 947 x 993 km, 82.9° (Epoch: 21 January)

Event Time Altitude Azimuth Distance (km) Brightness Sun altitude
Rises 10:57:20 0° 196° (SSW) 3,655 7.5 -19.1°
Reaches altitude 10° 10:59:51 10° 199° (SSW) 2,718 6.8 -18.7°
Maximum altitude 11:06:02 64° 280° (W) 1,086 4.5 -17.6°
Drops below altitude 10° 11:12:20 10° 2° (N) 2,761 6.7 -16.5°
Sets 11:14:54 0° 6° (N) 3,717 7.4 -16.0°
